Other Surface Observations
Issued by NWS Charleston, SC

Home | Current Version | Previous Version | Text Only | Print | Product List | Glossary On
Versions: 1 2 3 4 5 6 7 8 9 10 11 12 13 14 15 16 17 18 19 20 21 22 23 24 25 26 27 28 29 30 31 32 33 34 35 36 37 38 39 40 41 42 43 44 45 46 47 48 49 50
871
SXUS52 KCHS 031228
OSOCHS

MARINE OBSERVATIONS
NATIONAL WEATHER SERVICE CHARLESTON SC
800 AM EDT TUE MAY 03 2016

...DOWNTOWN CHARLESTON AND HARBOR...

CITY           SKY/WX    TMP DP  RH WIND       PRES   REMARKS
WATERFRONT PRK   N/A     75  73  93 SW6       29.85S

...LAKE MOULTRIE...

CITY           SKY/WX    TMP DP  RH WIND       PRES   REMARKS
PINOPOLIS        N/A     75  72  88 VRB2      29.78S

...LAKE AND SUPPLEMENTAL COASTAL OBSERVATIONS...

STATION/POSITION TIME  TEMP    WIND        PRES    WAVE   SWELL
                       AIR SEA DIR/SP/G            HT/PER HT/PER/DIR
                 (UTC) (F)     (DEG/KT/KT) (MB)    (FT/S) (FT/S/D)
FORT PULASKI     1200   74 74  240/  5/  8 1012.3F
SAPELO ISLAND    1200   73     240/  9     1013.0R
WINYAH BAY       1145   72     190/  8     1011.0R
LAKE MURRAY      1100   69     250/  3/  5 1010.8R
ACE BASIN NERRS  1145   74     220/  2     1012.0S


...C-MAN AND BUOY OBSERVATIONS...

STATION/POSITION TIME  TEMP    WIND        PRES    WAVE   SWELL
                       AIR SEA DIR/SP/G            HT/PER HT/PER/DIR
                 (UTC) (F)     (DEG/KT/KT) (MB)    (FT/S) (FT/S/D)
BUOY 41004       1150   76 74  200/ 16/ 19 1011.2R   5/ 6   2/11
BUOY 41008       NOT AVBL
FOLLY BEACH CMAN 1200   74     220/ 10/ 12 1011.6S
CAPERS NS BUOY   1108   74 73  230/ 16/ 19 1011.3S
FRIPP NS BUOY    1208   73 74  240/ 12/ 16 1011.1S
5E ST. MARYS GA  1121      73                N/A     3/ 6


STATION/POSITION TIME  TEMP    WIND        PRES    WAVE   SWELL
                       AIR SEA DIR/SP/G            HT/PER HT/PER/DIR
                 (UTC) (F)     (DEG/KT/KT) (MB)    (FT/S) (FT/S/D)
FRYING PAN BUOY  1200   71 73  200/ 21/ 27 1011.8R
BUOY 41025       1150   74 73  230/ 19/ 23 1010.3F   5/ 6   2/120/ 9
CAPE LOOKOUT NC  1200   72     220/ 12/ 18 1011.7R
BUOY 41002       1150   74 74  170/ 16/ 19 1015.6R   4/ 5   2/ 20/10
BUOY 41010       1120   78 78  180/ 17/ 21 1014.3R
ST AUGUSTINE FL  1200   72 71  240/  5/  6 1014.7R

$$




USA.gov is the U.S. government's official web portal to all federal, state and local government web resources and services.